Погода в Загорье

Россия / Ярославская область     57°01′45″N   38°21′01″E
темп.,
°C
ветер,
м/с
пор.,
м/с
влажн.,
%
обл.,
%
осадки,
мм/ч
давл.,
гПа
погр.,
м
13 июня, вс
вс1300:00+14ююз229498 0.0 100615
03:00+13ююз229547 0.0 100617
06:00+15ю129268 0.0 100684
09:00+19ююз227738 0.0 1006534
12:00+22юз23605 0.1 10061331
15:00+23ююв236133 1.1 10061294
18:00+22ю126945 0.5 1006280
21:00+17ю22842 0.9 100712
14 июня, пн
пн1400:00+15ю228868 0.1 100817
03:00+16ююз2289100 0.1 101027
06:00+16юз238921 0.0 101197
09:00+21зюз33695 0.0 1013514
12:00+24зюз23555 0.0 10131401
15:00+25юз2354100 0.0 10131581
18:00+20зсз357948 0.1 1014126
21:00+18ссв239193 0.6 101554
15 июня, вт
вт1500:00+16ссв11935 0.1 101511
03:00+15с11935 0.1 101511
06:00+17в11880 0.0 101583
09:00+21ююз22740 0.0 1014471
12:00+24зюз23626 0.4 10121215
15:00+26ююз355251 0.6 10112032
18:00+21ссв1282100 0.6 101047
21:00+19зсз2283100 0.8 101019
16 июня, ср
ср1600:00+17сз228896 0.1 101024
03:00+15зсз229299 0.1 101029
06:00+16сз479069 0.0 1010254
09:00+16ссз5884100 0.0 1012425
12:00+19сз786997 0.0 1013957
15:00+18с387012 0.0 1015722
18:00+19сз6116371 0.0 1015589
21:00+14ссз48790 0.0 1017124
17 июня, чт
чт1700:00+12ссз4116912 0.0 1019203
03:00+10ссз39692 0.0 1021162
06:00+12ссз39750 0.0 1022253
09:00+17ссз45570 0.0 1023623
12:00+20ссз34470 0.0 10241411
15:00+22ссз44444 0.0 10241695
18:00+21ссз35595 0.0 1024535
21:00+16с1267100 0.0 102511